{"data":{"norad_id":66323,"epoch":"2026-09-20T04:03:52.900992Z","epoch_age_seconds":125257,"freshness":"FRESH","line1":"1 66323U 25253E   26263.16936228  .00012495  00000+0  46269-3 0  9993","line2":"2 66323  42.9996 194.5263 0000737  19.2085 340.8795 15.27589759 49987","mean_motion":15.27589759,"eccentricity":7.37e-5,"inclination_deg":42.9996,"raan_deg":194.5263,"arg_perigee_deg":19.2085,"mean_anomaly_deg":340.8795,"bstar":0.00046269,"rev_number":4998,"period_min":94.26614649097,"perigee_km":482.51420697681,"apogee_km":483.52554150007,"semimajor_km":6861.1568742384,"source":"CELESTRAK","updated_at":"2026-09-21T09:00:35.873573Z"}}